EW9733 Weather Reports


Display with metric or nautical units.
time (UTC)temp
F
wind
direction
speed
MPH
gust
MPH
rain 1hr
in
rain 24hr
in
rain mn
in
humidity
%
barometer
mb
20260905190012 68 40 1.0 5.0 0.00 0.01 0.01 78 1009.4
20260905184508 67 17 2.0 10.0 0.00 0.01 0.01 77 1009.6
20260905183003 68 25 5.0 13.0 0.00 0.01 0.01 77 1009.6
20260905181510 69 28 2.0 12.0 0.00 0.01 0.01 77 1009.7
20260905180004 68 71 1.0 11.0 0.00 0.01 0.01 79 1009.6
20260905174504 69 28 3.0 11.0 0.00 0.01 0.01 79 1009.4
20260905173109 69 82 1.0 10.0 0.00 0.01 0.01 78 1009.3
20260905171558 70 22 4.0 11.0 0.00 0.01 0.01 75 1009.1
20260905170057 70 355 0.0 10.0 0.00 0.01 0.01 77 1009.1
20260905164556 70 24 3.0 11.0 0.00 0.01 0.01 75 1009.0
20260905163103 71 39 1.0 9.0 0.00 0.01 0.01 74 1008.9
20260905161553 71 84 1.0 10.0 0.00 0.01 0.01 75 1008.8
20260905160057 71 23 3.0 12.0 0.00 0.01 0.01 74 1008.7
20260905154552 69 48 1.0 5.0 0.00 0.01 0.01 78 1008.8
20260905153053 69 49 5.0 13.0 0.00 0.01 0.01 78 1008.7
20260905151548 69 45 0.0 8.0 0.00 0.01 0.01 76 1008.8
20260905150046 71 31 0.0 14.0 0.00 0.01 0.01 74 1008.6
20260905144551 73 38 0.0 5.0 0.00 0.01 0.01 74 1008.5
20260905143042 71 67 1.0 8.0 0.00 0.01 0.01 74 1008.2
20260905141602 71 90 0.0 3.0 0.00 0.01 0.01 76 1008.4
20260905140048 71 67 0.0 5.0 0.00 0.01 0.01 76 1008.6
20260905134534 71 306 0.0 8.0 0.00 0.01 0.01 79 1008.5
20260905133042 69 92 3.0 7.0 0.00 0.01 0.01 81 1008.4
20260905131539 68 194 1.0 6.0 0.00 0.01 0.01 84 1008.2
20260905130023 66 90 3.0 10.0 0.01 0.01 0.01 89 1008.2
20260905124517 65 44 0.0 9.0 0.01 0.01 0.01 93 1008.1
20260905123013 63 355 1.0 6.0 0.01 0.01 0.01 94 1008.0
20260905121509 62 58 0.0 4.0 0.01 0.01 0.01 94 1007.8
20260905120006 61 131 0.0 3.0 0.00 0.00 0.00 95 1007.8
20260905114626 60 163 0.0 2.0 0.00 0.00 0.00 94 1007.8
20260905113055 59 91 0.0 0.0 0.00 0.00 0.00 94 1007.7
20260905111553 58 91 0.0 0.0 0.00 0.00 0.00 93 1007.5
20260905110048 58 91 0.0 0.0 0.00 0.00 0.00 93 1007.2
20260905104547 57 91 0.0 0.0 0.00 0.00 0.00 93 1007.0
20260905103045 57 91 0.0 0.0 0.00 0.00 0.00 93 1007.0
20260905101545 57 91 0.0 0.0 0.00 0.00 0.00 93 1007.0
20260905100101 57 91 0.0 0.0 0.00 0.00 0.00 93 1006.9
20260905094542 57 91 0.0 0.0 0.00 0.00 0.00 93 1006.9
20260905093041 58 91 0.0 0.0 0.00 0.00 0.00 92 1007.0
20260905091552 58 91 0.0 0.0 0.00 0.00 0.00 92 1006.9
20260905090039 58 91 0.0 0.0 0.00 0.00 0.00 92 1006.9
20260905084536 58 91 0.0 0.0 0.00 0.00 0.00 92 1006.8
20260905083036 58 91 0.0 0.0 0.00 0.00 0.00 92 1006.7
20260905081534 59 91 0.0 0.0 0.00 0.00 0.00 92 1006.8
20260905080039 59 91 0.0 0.0 0.00 0.00 0.00 92 1006.8
20260905074543 59 91 0.0 0.0 0.00 0.00 0.00 92 1006.7
20260905073050 59 91 0.0 0.0 0.00 0.00 0.00 92 1006.7
20260905071531 59 91 0.0 0.0 0.00 0.00 0.00 92 1006.8
20260905070126 60 91 0.0 0.0 0.00 0.00 0.00 92 1006.9
20260905064525 60 91 0.0 0.0 0.00 0.00 0.00 92 1007.2
20260905063025 60 91 0.0 0.0 0.00 0.00 0.00 91 1007.2
20260905061522 60 91 0.0 0.0 0.00 0.00 0.00 91 1007.3
20260905060020 61 91 0.0 0.0 0.00 0.00 0.00 91 1007.3
20260905054518 61 91 0.0 0.0 0.00 0.00 0.00 91 1007.3
20260905053017 61 91 0.0 0.0 0.00 0.00 0.00 91 1007.4
20260905051516 62 91 0.0 0.0 0.00 0.00 0.00 91 1007.3
20260905050017 62 91 0.0 0.0 0.00 0.00 0.00 90 1007.1
20260905044512 62 91 0.0 0.0 0.00 0.00 0.00 90 1007.1
20260905043011 62 91 0.0 0.0 0.00 0.00 0.00 90 1007.1
20260905041510 63 91 0.0 0.0 0.00 0.00 0.00 90 1007.1
20260905040009 63 91 0.0 0.0 0.00 0.00 0.00 89 1007.2
20260905034506 63 91 0.0 0.0 0.00 0.00 0.00 89 1007.3
20260905033017 64 91 0.0 0.0 0.00 0.00 0.00 89 1007.2
20260905031506 64 91 0.0 0.0 0.00 0.00 0.00 89 1007.3
20260905030007 64 91 0.0 0.0 0.00 0.00 0.00 88 1007.2
20260905024505 65 91 0.0 0.0 0.00 0.00 0.00 87 1007.2
20260905023023 65 91 0.0 0.0 0.00 0.00 0.00 87 1007.3
20260905021506 66 91 0.0 0.0 0.00 0.00 0.00 87 1007.3
20260905020003 66 91 0.0 0.0 0.00 0.00 0.00 87 1007.5
20260905014503 67 91 0.0 0.0 0.00 0.00 0.00 86 1007.7
20260905013002 67 91 0.0 0.0 0.00 0.00 0.00 86 1007.6
20260905011503 68 91 0.0 0.0 0.00 0.00 0.00 85 1007.8
20260905010001 69 91 0.0 0.0 0.00 0.00 0.00 85 1007.9
20260905004502 69 91 0.0 0.0 0.00 0.00 0.00 84 1007.7
20260905003100 70 91 0.0 0.0 0.00 0.00 0.00 83 1007.6
20260905003001 70 91 0.0 0.0 0.00 0.00 0.00 83 1007.6
20260905001609 70 91 0.0 0.0 0.00 0.00 0.00 83 1007.5
20260905000116 71 91 0.0 0.0 0.00 0.00 0.00 81 1007.4
20260904234559 72 91 0.0 1.0 0.00 0.00 0.00 80 1007.2
20260904233058 73 91 0.0 1.0 0.00 0.00 0.00 78 1007.1
20260904231601 74 91 0.0 1.0 0.00 0.00 0.00 75 1007.0
20260904230057 75 49 0.0 2.0 0.00 0.00 0.00 74 1007.0
20260904224601 77 49 0.0 0.0 0.00 0.00 0.00 71 1006.9
20260904223055 78 49 0.0 1.0 0.00 0.00 0.00 69 1006.9
20260904221551 79 49 0.0 3.0 0.00 0.00 0.00 67 1006.7
20260904220109 80 49 0.0 2.0 0.00 0.00 0.00 63 1006.7
20260904214549 80 49 0.0 3.0 0.00 0.00 0.00 61 1006.5
20260904213049 80 11 0.0 1.0 0.00 0.00 0.00 62 1006.5
20260904211555 80 297 0.0 0.0 0.00 0.00 0.00 60 1006.4
20260904210100 80 298 0.0 1.0 0.00 0.00 0.00 61 1006.5
20260904204550 81 299 0.0 2.0 0.00 0.00 0.00 58 1006.4
20260904203047 82 42 0.0 4.0 0.00 0.00 0.00 55 1006.5
20260904201546 83 219 0.0 3.0 0.00 0.00 0.00 54 1006.6
20260904200046 82 318 0.0 3.0 0.00 0.00 0.00 59 1006.4
20260904194553 81 188 0.0 3.0 0.00 0.00 0.00 60 1006.6
20260904193044 82 43 1.0 5.0 0.00 0.00 0.00 55 1006.5
20260904191548 84 51 3.0 10.0 0.00 0.00 0.00 53 1006.5